View from above orbital plane
|
View from above satellite
|
Ground track
|
The orbit data is extracted from the following two-line orbital elements,
1 33591U 09005A 22176.14060176 .00000132 00000-0 96449-4 0 9990
2 33591 99.1469 210.4389 0014271 162.5657 197.6007 14.12580400689531
Epoch (UTC): | 25 June 2022 03:22:27 |
Eccentricity: | 0.0014271 |
inclination: | 99.1469° |
perigee height: | 840 km |
apogee height: | 861 km |
right ascension of ascending node: | 210.4389° |
argument of perigee: | 162.5657° |
revolutions per day: | 14.12580400 |
mean anomaly at epoch: | 197.6007° |
orbit number at epoch: | 68953 |
The dashed part of the orbit path shows where the satellite is in the earth's shadow,
|
|